Погода в Добровеличковке

Украина / Кировоградская область     48°23′05″N   31°10′36″E
темп.,
°C
ветер,
м/с
пор.,
м/с
влажн.,
%
обл.,
%
осадки,
мм/ч
давл.,
гПа
погр.,
м
25 февраля, чт
чт2523:00−1ююз4798100 0.0 1034253
02:00+1юз5799100 0.0 1034183
05:00+1зюз33100100 0.0 103275
08:00+2з33100100 0.0 103242
11:00+2юз34100100 0.0 103238
14:00+3зюз46100100 0.0 103196
17:00+3з35100100 0.1 103092
20:00+3зсз34100100 0.1 103088
26 февраля, пт
пт2623:00+3з34100100 0.0 103052
02:00+2з34100100 0.0 102974
05:00+2з34100100 0.0 102871
08:00+2зюз36100100 0.0 1027126
11:00+3зюз58100100 0.0 1025237
14:00+4зюз58100100 0.0 1023257
17:00+3зюз4799100 0.0 1021140
20:00+2з3499100 0.0 102183
27 февраля, сб
сб2723:00+2зсз349538 0.0 102053
02:00+2з349744 0.0 101966
05:00+3сз4998100 1.3 1018315
08:00+2зсз51292100 1.4 1018395
11:00+4сз61083100 0.1 10171040
14:00+4зсз5983100 0.2 1017759
17:00+3зсз5108987 0.0 1016438
20:00+2сз4119593 0.4 1017530
28 февраля, вс
вс2823:00+1ссз5109577 0.0 1018546
02:00+1ссз5109788 0.3 1020444
05:00+1ссз61197100 0.3 1021609
08:000ссз6108997 0.4 1023681
11:00+2ссз697990 0.2 1024940
14:00+2ссз697595 0.4 1024937
17:00+2ссз487895 0.1 1025682
20:000ссз388997 0.2 1027323
1 марта, пн
пн123:00−1ссз379595 0.1 1028266
02:00−1ссз359195 0.1 1029174
05:00−1с379499 0.1 1030277
08:00−1с578689 0.1 1031405
11:00+2с566880 0.1 1033983
14:00+2с456590 0.1 10331042
17:00+1ссз3569100 0.0 1033802
20:00−1сз227961 0.0 103525